WXM80 ListenWXM80 Stop

You find our weather info also at:

UK Metoffice

WeatherCloud

Weather Underground

Northeastern Weather Network

AWEKAS

Citizen Weather Observer Program (CWOP)

HAMweather, WeatherForYou, PWS Weather


Weather Underground History page Text

Daily Summary for February 22, 2018 Units:  Both    English   Metric
« Previous Day
Next Day »
Daily Weekly Monthly Yearly Custom
  High: Low: Average:
Temperature: 53.1 °F /  11.7 °C 35.8 °F /  2.1 °C 41.7 °F /  5.4 °C
Dew Point: 43.3 °F /  6.3 °C 34.0 °F /  1.1 °C 38 °F /  3.3 °C
Humidity: 95 % 66 % 87 %
Wind Speed: 8.0 mph /  12.9 km/h - 4.2 mph /  6.8 km/h
Wind Gust: 12.7 mph /  20.4 km/h - -
Wind:- - East
Pressure: 30.43 in /  1030.4 hPa 30.15 in /  1020.9 hPa -
Precipitation: 0.02 in /  0.51 mm    
Historical Graphs
 
 
Tabular Data for February 22, 2018
Time Temperature Dew Point Pressure Wind Wind Speed Wind Gust Humidity Rainfall Rate (Hourly)
00:04 52.4 °F /  11.3 °C 43.3 °F /  6.3 °C 30.15 in /  1020.9 hPa NNE 6.8 mph /  10.9 km/h 10.4 mph /  16.7 km/h 71 % 0.00 in /  0 mm
00:09 52.7 °F /  11.5 °C 43.2 °F /  6.2 °C 30.15 in /  1020.9 hPa North 7.2 mph /  11.6 km/h 9.2 mph /  14.8 km/h 70 % 0.00 in /  0 mm
00:14 52.8 °F /  11.6 °C 43.3 °F /  6.3 °C 30.15 in /  1020.9 hPa North 6.8 mph /  10.9 km/h 10.4 mph /  16.7 km/h 70 % 0.00 in /  0 mm
00:19 52.9 °F /  11.6 °C 42.6 °F /  5.9 °C 30.16 in /  1021.2 hPa NNE 7.3 mph /  11.7 km/h 10.0 mph /  16.1 km/h 68 % 0.00 in /  0 mm
00:25 53.0 °F /  11.7 °C 42.3 °F /  5.7 °C 30.16 in /  1021.2 hPa NNW 6.6 mph /  10.6 km/h 9.2 mph /  14.8 km/h 67 % 0.00 in /  0 mm
00:30 53.1 °F /  11.7 °C 42.0 °F /  5.6 °C 30.16 in /  1021.2 hPa North 5.8 mph /  9.3 km/h 9.2 mph /  14.8 km/h 66 % 0.00 in /  0 mm
00:35 53.1 °F /  11.7 °C 42.4 °F /  5.8 °C 30.16 in /  1021.2 hPa North 5.6 mph /  9 km/h 10.4 mph /  16.7 km/h 67 % 0.00 in /  0 mm
00:40 53.0 °F /  11.7 °C 42.3 °F /  5.7 °C 30.17 in /  1021.6 hPa NNE 5.8 mph /  9.3 km/h 8.1 mph /  13 km/h 67 % 0.00 in /  0 mm
00:45 53.0 °F /  11.7 °C 42.7 °F /  5.9 °C 30.16 in /  1021.2 hPa North 5.8 mph /  9.3 km/h 9.2 mph /  14.8 km/h 68 % 0.00 in /  0 mm
00:50 52.7 °F /  11.5 °C 42.4 °F /  5.8 °C 30.17 in /  1021.6 hPa NE 6.3 mph /  10.1 km/h 11.5 mph /  18.5 km/h 68 % 0.00 in /  0 mm
00:55 52.4 °F /  11.3 °C 42.1 °F /  5.6 °C 30.18 in /  1021.9 hPa North 6.8 mph /  10.9 km/h 9.2 mph /  14.8 km/h 68 % 0.00 in /  0 mm
01:00 51.9 °F /  11.1 °C 41.7 °F /  5.4 °C 30.18 in /  1021.9 hPa North 4.7 mph /  7.6 km/h 8.1 mph /  13 km/h 68 % 0.00 in /  0 mm
01:05 51.4 °F /  10.8 °C 41.6 °F /  5.3 °C 30.18 in /  1021.9 hPa NNE 4.9 mph /  7.9 km/h 8.1 mph /  13 km/h 69 % 0.00 in /  0 mm
01:10 51.0 °F /  10.6 °C 41.6 °F /  5.3 °C 30.18 in /  1021.9 hPa NNE 5.6 mph /  9 km/h 8.1 mph /  13 km/h 70 % 0.00 in /  0 mm
01:15 50.9 °F /  10.5 °C 41.8 °F /  5.4 °C 30.18 in /  1021.9 hPa North 5.7 mph /  9.2 km/h 8.1 mph /  13 km/h 71 % 0.00 in /  0 mm
01:20 50.8 °F /  10.4 °C 41.7 °F /  5.4 °C 30.18 in /  1021.9 hPa NNW 5.5 mph /  8.9 km/h 9.2 mph /  14.8 km/h 71 % 0.00 in /  0 mm
01:25 50.9 °F /  10.5 °C 42.2 °F /  5.7 °C 30.19 in /  1022.2 hPa North 4.1 mph /  6.6 km/h 5.8 mph /  9.3 km/h 72 % 0.00 in /  0 mm
01:30 50.8 °F /  10.4 °C 42.1 °F /  5.6 °C 30.19 in /  1022.2 hPa North 6.5 mph /  10.5 km/h 12.0 mph /  19.3 km/h 72 % 0.00 in /  0 mm
01:35 50.6 °F /  10.3 °C 41.9 °F /  5.5 °C 30.19 in /  1022.2 hPa NNW 5.5 mph /  8.9 km/h 8.1 mph /  13 km/h 72 % 0.00 in /  0 mm
01:40 50.5 °F /  10.3 °C 41.8 °F /  5.4 °C 30.20 in /  1022.6 hPa NW 5.9 mph /  9.5 km/h 8.0 mph /  12.9 km/h 72 % 0.00 in /  0 mm
01:45 50.3 °F /  10.2 °C 41.6 °F /  5.3 °C 30.20 in /  1022.6 hPa North 5.3 mph /  8.5 km/h 11.5 mph /  18.5 km/h 72 % 0.00 in /  0 mm
01:50 50.0 °F /  10 °C 41.7 °F /  5.4 °C 30.20 in /  1022.6 hPa NW 6.9 mph /  11.1 km/h 11.5 mph /  18.5 km/h 73 % 0.00 in /  0 mm
01:55 49.8 °F /  9.9 °C 41.8 °F /  5.4 °C 30.20 in /  1022.6 hPa NNW 6.7 mph /  10.8 km/h 12.7 mph /  20.4 km/h 74 % 0.00 in /  0 mm
02:00 49.6 °F /  9.8 °C 41.7 °F /  5.4 °C 30.20 in /  1022.6 hPa NNW 4.5 mph /  7.2 km/h 9.2 mph /  14.8 km/h 74 % 0.00 in /  0 mm
02:05 49.5 °F /  9.7 °C 41.9 °F /  5.5 °C 30.20 in /  1022.6 hPa NNW 4.7 mph /  7.6 km/h 9.2 mph /  14.8 km/h 75 % 0.00 in /  0 mm
02:10 49.4 °F /  9.7 °C 42.1 °F /  5.6 °C 30.20 in /  1022.6 hPa NNW 4.1 mph /  6.6 km/h 9.2 mph /  14.8 km/h 76 % 0.00 in /  0 mm
02:15 49.2 °F /  9.6 °C 42.0 °F /  5.6 °C 30.20 in /  1022.6 hPa North 6.6 mph /  10.6 km/h 6.9 mph /  11.1 km/h 76 % 0.00 in /  0 mm
02:20 49.0 °F /  9.4 °C 41.8 °F /  5.4 °C 30.20 in /  1022.6 hPa North 4.9 mph /  7.9 km/h 11.5 mph /  18.5 km/h 76 % 0.00 in /  0 mm
02:25 48.8 °F /  9.3 °C 41.9 °F /  5.5 °C 30.21 in /  1022.9 hPa NNW 3.0 mph /  4.8 km/h 10.0 mph /  16.1 km/h 77 % 0.00 in /  0 mm
02:30 48.6 °F /  9.2 °C 41.7 °F /  5.4 °C 30.22 in /  1023.2 hPa NNW 4.5 mph /  7.2 km/h 10.0 mph /  16.1 km/h 77 % 0.00 in /  0 mm
02:36 48.4 °F /  9.1 °C 41.5 °F /  5.3 °C 30.22 in /  1023.2 hPa NNW 5.0 mph /  8 km/h 10.0 mph /  16.1 km/h 77 % 0.00 in /  0 mm
02:40 48.1 °F /  8.9 °C 41.2 °F /  5.1 °C 30.22 in /  1023.2 hPa NNW 5.0 mph /  8 km/h 8.0 mph /  12.9 km/h 77 % 0.00 in /  0 mm
02:45 47.8 °F /  8.8 °C 41.3 °F /  5.2 °C 30.22 in /  1023.2 hPa NNW 3.0 mph /  4.8 km/h 8.0 mph /  12.9 km/h 78 % 0.00 in /  0 mm
02:51 47.6 °F /  8.7 °C 41.1 °F /  5.1 °C 30.22 in /  1023.2 hPa NNW 2.0 mph /  3.2 km/h 5.0 mph /  8 km/h 78 % 0.00 in /  0 mm
02:55 47.4 °F /  8.6 °C 41.2 °F /  5.1 °C 30.23 in /  1023.6 hPa North 5.0 mph /  8 km/h 8.0 mph /  12.9 km/h 79 % 0.00 in /  0 mm
03:01 47.1 °F /  8.4 °C 40.9 °F /  4.9 °C 30.23 in /  1023.6 hPa NW 5.0 mph /  8 km/h 7.0 mph /  11.3 km/h 79 % 0.00 in /  0 mm
03:06 46.9 °F /  8.3 °C 41.1 °F /  5.1 °C 30.23 in /  1023.6 hPa North 4.8 mph /  7.7 km/h 6.9 mph /  11.1 km/h 80 % 0.00 in /  0 mm
03:11 46.8 °F /  8.2 °C 41.0 °F /  5 °C 30.23 in /  1023.6 hPa North 3.0 mph /  4.8 km/h 8.0 mph /  12.9 km/h 80 % 0.00 in /  0 mm
03:16 46.7 °F /  8.2 °C 41.2 °F /  5.1 °C 30.23 in /  1023.6 hPa NNE 3.6 mph /  5.8 km/h 5.0 mph /  8 km/h 81 % 0.00 in /  0 mm
03:21 46.7 °F /  8.2 °C 41.2 °F /  5.1 °C 30.24 in /  1023.9 hPa North 5.1 mph /  8.2 km/h 5.8 mph /  9.3 km/h 81 % 0.00 in /  0 mm
03:26 46.6 °F /  8.1 °C 41.1 °F /  5.1 °C 30.25 in /  1024.3 hPa North 4.5 mph /  7.2 km/h 9.2 mph /  14.8 km/h 81 % 0.00 in /  0 mm
03:31 46.6 °F /  8.1 °C 40.8 °F /  4.9 °C 30.24 in /  1023.9 hPa North 3.0 mph /  4.8 km/h 4.6 mph /  7.4 km/h 80 % 0.00 in /  0 mm
03:36 46.5 °F /  8.1 °C 40.3 °F /  4.6 °C 30.24 in /  1023.9 hPa NNE 5.6 mph /  9 km/h 9.2 mph /  14.8 km/h 79 % 0.00 in /  0 mm
03:41 46.4 °F /  8 °C 39.9 °F /  4.4 °C 30.24 in /  1023.9 hPa North 6.5 mph /  10.5 km/h 8.1 mph /  13 km/h 78 % 0.00 in /  0 mm
03:46 46.4 °F /  8 °C 39.9 °F /  4.4 °C 30.25 in /  1024.3 hPa NNE 5.8 mph /  9.3 km/h 10.4 mph /  16.7 km/h 78 % 0.00 in /  0 mm
03:51 46.4 °F /  8 °C 39.6 °F /  4.2 °C 30.25 in /  1024.3 hPa NNE 6.9 mph /  11.1 km/h 9.2 mph /  14.8 km/h 77 % 0.00 in /  0 mm
03:56 46.3 °F /  7.9 °C 39.5 °F /  4.2 °C 30.25 in /  1024.3 hPa North 7.7 mph /  12.4 km/h 11.5 mph /  18.5 km/h 77 % 0.00 in /  0 mm
04:02 46.2 °F /  7.9 °C 39.1 °F /  3.9 °C 30.26 in /  1024.6 hPa NE 3.0 mph /  4.8 km/h 8.1 mph /  13 km/h 76 % 0.00 in /  0 mm
04:07 46.1 °F /  7.8 °C 39.0 °F /  3.9 °C 30.26 in /  1024.6 hPa North 6.5 mph /  10.5 km/h 9.2 mph /  14.8 km/h 76 % 0.00 in /  0 mm
04:12 46.0 °F /  7.8 °C 38.5 °F /  3.6 °C 30.26 in /  1024.6 hPa NNE 4.9 mph /  7.9 km/h 9.2 mph /  14.8 km/h 75 % 0.00 in /  0 mm
04:17 45.8 °F /  7.7 °C 38.3 °F /  3.5 °C 30.27 in /  1024.9 hPa NE 6.9 mph /  11.1 km/h 10.4 mph /  16.7 km/h 75 % 0.00 in /  0 mm
04:22 45.8 °F /  7.7 °C 38.3 °F /  3.5 °C 30.27 in /  1024.9 hPa NNE 6.6 mph /  10.6 km/h 11.5 mph /  18.5 km/h 75 % 0.00 in /  0 mm
04:27 45.8 °F /  7.7 °C 38.3 °F /  3.5 °C 30.27 in /  1024.9 hPa North 5.9 mph /  9.5 km/h 11.5 mph /  18.5 km/h 75 % 0.00 in /  0 mm
04:32 45.7 °F /  7.6 °C 38.2 °F /  3.4 °C 30.26 in /  1024.6 hPa North 7.1 mph /  11.4 km/h 9.2 mph /  14.8 km/h 75 % 0.00 in /  0 mm
04:37 45.6 °F /  7.6 °C 38.1 °F /  3.4 °C 30.26 in /  1024.6 hPa NNE 6.2 mph /  10 km/h 11.5 mph /  18.5 km/h 75 % 0.00 in /  0 mm
04:42 45.5 °F /  7.5 °C 38.0 °F /  3.3 °C 30.27 in /  1024.9 hPa NNW 4.2 mph /  6.8 km/h 6.9 mph /  11.1 km/h 75 % 0.00 in /  0 mm
04:47 45.5 °F /  7.5 °C 38.0 °F /  3.3 °C 30.27 in /  1024.9 hPa NNE 3.0 mph /  4.8 km/h 6.0 mph /  9.7 km/h 75 % 0.00 in /  0 mm
04:52 45.4 °F /  7.4 °C 37.9 °F /  3.3 °C 30.27 in /  1024.9 hPa NNE 4.7 mph /  7.6 km/h 6.9 mph /  11.1 km/h 75 % 0.00 in /  0 mm
04:57 45.4 °F /  7.4 °C 38.3 °F /  3.5 °C 30.27 in /  1024.9 hPa NNW 3.3 mph /  5.3 km/h 5.0 mph /  8 km/h 76 % 0.00 in /  0 mm
05:03 45.3 °F /  7.4 °C 38.2 °F /  3.4 °C 30.29 in /  1025.6 hPa North 3.0 mph /  4.8 km/h 4.6 mph /  7.4 km/h 76 % 0.00 in /  0 mm
05:08 45.2 °F /  7.3 °C 38.1 °F /  3.4 °C 30.29 in /  1025.6 hPa NW 2.2 mph /  3.5 km/h 3.5 mph /  5.6 km/h 76 % 0.00 in /  0 mm
05:13 45.1 °F /  7.3 °C 38.0 °F /  3.3 °C 30.30 in /  1026 hPa NW 1.6 mph /  2.6 km/h 3.5 mph /  5.6 km/h 76 % 0.00 in /  0 mm
05:18 45.1 °F /  7.3 °C 38.0 °F /  3.3 °C 30.29 in /  1025.6 hPa NNE 1.8 mph /  2.9 km/h 3.5 mph /  5.6 km/h 76 % 0.00 in /  0 mm
05:23 45.0 °F /  7.2 °C 37.9 °F /  3.3 °C 30.30 in /  1026 hPa North 1.1 mph /  1.8 km/h 3.5 mph /  5.6 km/h 76 % 0.00 in /  0 mm
05:28 44.9 °F /  7.2 °C 37.8 °F /  3.2 °C 30.30 in /  1026 hPa NNE 1.9 mph /  3.1 km/h 3.5 mph /  5.6 km/h 76 % 0.00 in /  0 mm
05:33 44.9 °F /  7.2 °C 38.1 °F /  3.4 °C 30.30 in /  1026 hPa North 3.0 mph /  4.8 km/h 3.5 mph /  5.6 km/h 77 % 0.00 in /  0 mm
05:38 44.8 °F /  7.1 °C 38.0 °F /  3.3 °C 30.31 in /  1026.3 hPa North 2.6 mph /  4.2 km/h 7.0 mph /  11.3 km/h 77 % 0.00 in /  0 mm
05:43 44.7 °F /  7.1 °C 38.6 °F /  3.7 °C 30.31 in /  1026.3 hPa NNE 3.9 mph /  6.3 km/h 9.2 mph /  14.8 km/h 79 % 0.00 in /  0 mm
05:48 44.6 °F /  7 °C 38.8 °F /  3.8 °C 30.31 in /  1026.3 hPa NNW 2.7 mph /  4.3 km/h 5.8 mph /  9.3 km/h 80 % 0.00 in /  0 mm
05:53 44.5 °F /  6.9 °C 39.0 °F /  3.9 °C 30.31 in /  1026.3 hPa North 4.7 mph /  7.6 km/h 5.8 mph /  9.3 km/h 81 % 0.00 in /  0 mm
05:58 44.3 °F /  6.8 °C 39.2 °F /  4 °C 30.30 in /  1026 hPa NNE 2.9 mph /  4.7 km/h 8.1 mph /  13 km/h 82 % 0.00 in /  0 mm
06:03 44.2 °F /  6.8 °C 39.4 °F /  4.1 °C 30.30 in /  1026 hPa NE 2.2 mph /  3.5 km/h 4.6 mph /  7.4 km/h 83 % 0.00 in /  0 mm
06:08 44.1 °F /  6.7 °C 39.3 °F /  4.1 °C 30.30 in /  1026 hPa NNE 1.0 mph /  1.6 km/h 4.0 mph /  6.4 km/h 83 % 0.00 in /  0 mm
06:13 44.0 °F /  6.7 °C 39.5 °F /  4.2 °C 30.30 in /  1026 hPa ENE 2.2 mph /  3.5 km/h 3.5 mph /  5.6 km/h 84 % 0.00 in /  0 mm
06:18 43.9 °F /  6.6 °C 39.4 °F /  4.1 °C 30.30 in /  1026 hPa ENE 1.6 mph /  2.6 km/h 4.0 mph /  6.4 km/h 84 % 0.00 in /  0 mm
06:23 43.7 °F /  6.5 °C 39.2 °F /  4 °C 30.29 in /  1025.6 hPa ENE 2.5 mph /  4 km/h 4.6 mph /  7.4 km/h 84 % 0.00 in /  0 mm
06:28 43.5 °F /  6.4 °C 39.3 °F /  4.1 °C 30.29 in /  1025.6 hPa ENE 2.0 mph /  3.2 km/h 3.5 mph /  5.6 km/h 85 % 0.00 in /  0 mm
06:33 43.4 °F /  6.3 °C 39.2 °F /  4 °C 30.30 in /  1026 hPa NNE 1.7 mph /  2.7 km/h 3.5 mph /  5.6 km/h 85 % 0.00 in /  0 mm
06:38 43.3 °F /  6.3 °C 39.1 °F /  3.9 °C 30.30 in /  1026 hPa NE 0.7 mph /  1.1 km/h 3.5 mph /  5.6 km/h 85 % 0.00 in /  0 mm
06:43 43.2 °F /  6.2 °C 39.3 °F /  4.1 °C 30.29 in /  1025.6 hPa NE 1.4 mph /  2.3 km/h 3.5 mph /  5.6 km/h 86 % 0.00 in /  0 mm
06:49 43.1 °F /  6.2 °C 39.2 °F /  4 °C 30.30 in /  1026 hPa ENE 1.9 mph /  3.1 km/h 6.9 mph /  11.1 km/h 86 % 0.00 in /  0 mm
06:54 43.0 °F /  6.1 °C 39.1 °F /  3.9 °C 30.29 in /  1025.6 hPa ENE 2.7 mph /  4.3 km/h 3.5 mph /  5.6 km/h 86 % 0.00 in /  0 mm
06:59 43.0 °F /  6.1 °C 39.4 °F /  4.1 °C 30.28 in /  1025.3 hPa East 3.2 mph /  5.1 km/h 5.0 mph /  8 km/h 87 % 0.00 in /  0 mm
07:04 42.9 °F /  6.1 °C 39.3 °F /  4.1 °C 30.29 in /  1025.6 hPa ENE 2.5 mph /  4 km/h 4.6 mph /  7.4 km/h 87 % 0.00 in /  0 mm
07:09 42.9 °F /  6.1 °C 39.6 °F /  4.2 °C 30.31 in /  1026.3 hPa ENE 2.4 mph /  3.9 km/h 3.5 mph /  5.6 km/h 88 % 0.00 in /  0 mm
07:14 42.9 °F /  6.1 °C 39.6 °F /  4.2 °C 30.31 in /  1026.3 hPa NE 1.6 mph /  2.6 km/h 3.5 mph /  5.6 km/h 88 % 0.00 in /  0 mm
07:19 42.8 °F /  6 °C 39.5 °F /  4.2 °C 30.31 in /  1026.3 hPa ENE 1.5 mph /  2.4 km/h 3.5 mph /  5.6 km/h 88 % 0.00 in /  0 mm
07:24 42.8 °F /  6 °C 39.5 °F /  4.2 °C 30.31 in /  1026.3 hPa ENE 1.9 mph /  3.1 km/h 3.5 mph /  5.6 km/h 88 % 0.00 in /  0 mm
07:29 42.8 °F /  6 °C 39.5 °F /  4.2 °C 30.30 in /  1026 hPa ENE 3.3 mph /  5.3 km/h 4.6 mph /  7.4 km/h 88 % 0.00 in /  0 mm
07:34 42.7 °F /  5.9 °C 39.4 °F /  4.1 °C 30.30 in /  1026 hPa ENE 1.9 mph /  3.1 km/h 3.5 mph /  5.6 km/h 88 % 0.00 in /  0 mm
07:39 42.7 °F /  5.9 °C 39.4 °F /  4.1 °C 30.31 in /  1026.3 hPa NE 2.0 mph /  3.2 km/h 3.5 mph /  5.6 km/h 88 % 0.00 in /  0 mm
07:44 42.6 °F /  5.9 °C 39.6 °F /  4.2 °C 30.31 in /  1026.3 hPa NE 1.4 mph /  2.3 km/h 2.3 mph /  3.7 km/h 89 % 0.00 in /  0 mm
07:49 42.5 °F /  5.8 °C 39.5 °F /  4.2 °C 30.31 in /  1026.3 hPa ENE 0.6 mph /  1 km/h 2.3 mph /  3.7 km/h 89 % 0.00 in /  0 mm
07:54 42.5 °F /  5.8 °C 39.5 °F /  4.2 °C 30.31 in /  1026.3 hPa ENE 1.0 mph /  1.6 km/h 3.5 mph /  5.6 km/h 89 % 0.00 in /  0 mm
07:59 42.5 °F /  5.8 °C 39.5 °F /  4.2 °C 30.31 in /  1026.3 hPa ENE 0.8 mph /  1.3 km/h 3.5 mph /  5.6 km/h 89 % 0.00 in /  0 mm
08:05 42.4 °F /  5.8 °C 39.4 °F /  4.1 °C 30.31 in /  1026.3 hPa NNE 1.2 mph /  1.9 km/h 4.6 mph /  7.4 km/h 89 % 0.00 in /  0 mm
08:10 42.4 °F /  5.8 °C 39.4 °F /  4.1 °C 30.31 in /  1026.3 hPa NE 3.0 mph /  4.8 km/h 3.5 mph /  5.6 km/h 89 % 0.00 in /  0 mm
08:15 42.3 °F /  5.7 °C 39.3 °F /  4.1 °C 30.31 in /  1026.3 hPa ENE 1.5 mph /  2.4 km/h 4.0 mph /  6.4 km/h 89 % 0.00 in /  0 mm
08:20 42.2 °F /  5.7 °C 39.5 °F /  4.2 °C 30.33 in /  1027 hPa ENE 0.7 mph /  1.1 km/h 2.3 mph /  3.7 km/h 90 % 0.00 in /  0 mm
08:25 42.2 °F /  5.7 °C 39.5 °F /  4.2 °C 30.34 in /  1027.3 hPa Calm     90 % 0.00 in /  0 mm
08:30 42.2 °F /  5.7 °C 39.5 °F /  4.2 °C 30.33 in /  1027 hPa NE 1.4 mph /  2.3 km/h 3.5 mph /  5.6 km/h 90 % 0.00 in /  0 mm
08:35 42.1 °F /  5.6 °C 39.7 °F /  4.3 °C 30.34 in /  1027.3 hPa Calm     91 % 0.00 in /  0 mm
08:40 42.1 °F /  5.6 °C 39.7 °F /  4.3 °C 30.33 in /  1027 hPa ENE 2.0 mph /  3.2 km/h 3.5 mph /  5.6 km/h 91 % 0.00 in /  0 mm
08:45 42.1 °F /  5.6 °C 39.7 °F /  4.3 °C 30.33 in /  1027 hPa ENE 1.1 mph /  1.8 km/h 2.3 mph /  3.7 km/h 91 % 0.00 in /  0 mm
08:50 42.1 °F /  5.6 °C 39.9 °F /  4.4 °C 30.33 in /  1027 hPa ENE 2.6 mph /  4.2 km/h 4.6 mph /  7.4 km/h 92 % 0.00 in /  0 mm
08:55 42.1 °F /  5.6 °C 39.9 °F /  4.4 °C 30.33 in /  1027 hPa ENE 2.6 mph /  4.2 km/h 4.0 mph /  6.4 km/h 92 % 0.00 in /  0 mm
09:00 42.0 °F /  5.6 °C 39.8 °F /  4.3 °C 30.33 in /  1027 hPa ENE 2.5 mph /  4 km/h 4.0 mph /  6.4 km/h 92 % 0.00 in /  0 mm
09:05 42.0 °F /  5.6 °C 39.8 °F /  4.3 °C 30.33 in /  1027 hPa ENE 2.8 mph /  4.5 km/h 3.5 mph /  5.6 km/h 92 % 0.00 in /  0 mm
09:10 41.9 °F /  5.5 °C 39.7 °F /  4.3 °C 30.33 in /  1027 hPa ENE 2.1 mph /  3.4 km/h 3.5 mph /  5.6 km/h 92 % 0.00 in /  0 mm
09:15 41.9 °F /  5.5 °C 40.0 °F /  4.4 °C 30.33 in /  1027 hPa East 4.1 mph /  6.6 km/h 5.8 mph /  9.3 km/h 93 % 0.00 in /  0 mm
09:21 41.9 °F /  5.5 °C 40.0 °F /  4.4 °C 30.34 in /  1027.3 hPa Calm   3.0 mph /  4.8 km/h 93 % 0.00 in /  0 mm
09:26 41.8 °F /  5.4 °C 39.9 °F /  4.4 °C 30.33 in /  1027 hPa East 3.0 mph /  4.8 km/h 5.0 mph /  8 km/h 93 % 0.00 in /  0 mm
09:31 41.7 °F /  5.4 °C 39.8 °F /  4.3 °C 30.34 in /  1027.3 hPa ENE 1.3 mph /  2.1 km/h 5.8 mph /  9.3 km/h 93 % 0.00 in /  0 mm
09:36 41.6 °F /  5.3 °C 39.4 °F /  4.1 °C 30.33 in /  1027 hPa ENE 1.0 mph /  1.6 km/h 5.0 mph /  8 km/h 92 % 0.00 in /  0 mm
09:41 41.6 °F /  5.3 °C 39.4 °F /  4.1 °C 30.35 in /  1027.7 hPa Calm   2.0 mph /  3.2 km/h 92 % 0.00 in /  0 mm
09:46 41.6 °F /  5.3 °C 39.4 °F /  4.1 °C 30.35 in /  1027.7 hPa NE 3.0 mph /  4.8 km/h 10.0 mph /  16.1 km/h 92 % 0.00 in /  0 mm
09:51 41.5 °F /  5.3 °C 39.1 °F /  3.9 °C 30.34 in /  1027.3 hPa ENE 3.0 mph /  4.8 km/h 8.0 mph /  12.9 km/h 91 % 0.00 in /  0 mm
09:56 41.7 °F /  5.4 °C 39.2 °F /  4 °C 30.35 in /  1027.7 hPa ENE 2.0 mph /  3.2 km/h 3.0 mph /  4.8 km/h 91 % 0.00 in /  0 mm
10:01 41.7 °F /  5.4 °C 39.0 °F /  3.9 °C 30.36 in /  1028 hPa ENE 2.9 mph /  4.7 km/h 4.0 mph /  6.4 km/h 90 % 0.00 in /  0 mm
10:06 41.6 °F /  5.3 °C 38.9 °F /  3.8 °C 30.35 in /  1027.7 hPa ENE 3.0 mph /  4.8 km/h 7.0 mph /  11.3 km/h 90 % 0.00 in /  0 mm
10:11 41.7 °F /  5.4 °C 39.0 °F /  3.9 °C 30.36 in /  1028 hPa ENE 5.0 mph /  8 km/h 7.0 mph /  11.3 km/h 90 % 0.00 in /  0 mm
10:16 41.6 °F /  5.3 °C 38.9 °F /  3.8 °C 30.37 in /  1028.3 hPa ENE 3.0 mph /  4.8 km/h 7.0 mph /  11.3 km/h 90 % 0.00 in /  0 mm
10:21 41.5 °F /  5.3 °C 38.5 °F /  3.6 °C 30.38 in /  1028.7 hPa ENE 2.0 mph /  3.2 km/h 4.0 mph /  6.4 km/h 89 % 0.00 in /  0 mm
10:26 41.5 °F /  5.3 °C 38.5 °F /  3.6 °C 30.38 in /  1028.7 hPa ENE 3.0 mph /  4.8 km/h 5.0 mph /  8 km/h 89 % 0.00 in /  0 mm
10:31 41.4 °F /  5.2 °C 38.4 °F /  3.6 °C 30.38 in /  1028.7 hPa ENE 3.0 mph /  4.8 km/h 5.0 mph /  8 km/h 89 % 0.00 in /  0 mm
10:36 41.5 °F /  5.3 °C 38.5 °F /  3.6 °C 30.38 in /  1028.7 hPa ENE 2.7 mph /  4.3 km/h 4.6 mph /  7.4 km/h 89 % 0.00 in /  0 mm
10:41 41.5 °F /  5.3 °C 38.5 °F /  3.6 °C 30.38 in /  1028.7 hPa ENE 1.0 mph /  1.6 km/h 5.0 mph /  8 km/h 89 % 0.00 in /  0 mm
10:46 41.6 °F /  5.3 °C 38.9 °F /  3.8 °C 30.36 in /  1028 hPa ENE 5.0 mph /  8 km/h 7.0 mph /  11.3 km/h 90 % 0.00 in /  0 mm
10:51 41.9 °F /  5.5 °C 38.9 °F /  3.8 °C 30.36 in /  1028 hPa ENE 5.0 mph /  8 km/h 8.0 mph /  12.9 km/h 89 % 0.00 in /  0 mm
10:56 42.2 °F /  5.7 °C 39.2 °F /  4 °C 30.36 in /  1028 hPa ENE 5.0 mph /  8 km/h 8.0 mph /  12.9 km/h 89 % 0.00 in /  0 mm
11:01 42.5 °F /  5.8 °C 39.5 °F /  4.2 °C 30.36 in /  1028 hPa East 3.5 mph /  5.6 km/h 6.9 mph /  11.1 km/h 89 % 0.00 in /  0 mm
11:06 42.8 °F /  6 °C 39.5 °F /  4.2 °C 30.35 in /  1027.7 hPa East 4.6 mph /  7.4 km/h 6.0 mph /  9.7 km/h 88 % 0.00 in /  0 mm
11:11 42.9 °F /  6.1 °C 39.6 °F /  4.2 °C 30.34 in /  1027.3 hPa ENE 5.6 mph /  9 km/h 6.9 mph /  11.1 km/h 88 % 0.00 in /  0 mm
11:16 43.1 °F /  6.2 °C 39.8 °F /  4.3 °C 30.35 in /  1027.7 hPa East 4.4 mph /  7.1 km/h 6.9 mph /  11.1 km/h 88 % 0.00 in /  0 mm
11:21 43.1 °F /  6.2 °C 39.8 °F /  4.3 °C 30.35 in /  1027.7 hPa ENE 3.1 mph /  5 km/h 5.0 mph /  8 km/h 88 % 0.00 in /  0 mm
11:26 43.0 °F /  6.1 °C 39.7 °F /  4.3 °C 30.35 in /  1027.7 hPa ENE 3.3 mph /  5.3 km/h 5.0 mph /  8 km/h 88 % 0.00 in /  0 mm
11:31 42.8 °F /  6 °C 39.5 °F /  4.2 °C 30.35 in /  1027.7 hPa ENE 3.1 mph /  5 km/h 4.0 mph /  6.4 km/h 88 % 0.00 in /  0 mm
11:36 42.6 °F /  5.9 °C 39.3 °F /  4.1 °C 30.34 in /  1027.3 hPa East 3.5 mph /  5.6 km/h 7.0 mph /  11.3 km/h 88 % 0.00 in /  0 mm
11:41 42.5 °F /  5.8 °C 39.5 °F /  4.2 °C 30.34 in /  1027.3 hPa ENE 3.4 mph /  5.5 km/h 6.9 mph /  11.1 km/h 89 % 0.00 in /  0 mm
11:46 42.5 °F /  5.8 °C 39.5 °F /  4.2 °C 30.34 in /  1027.3 hPa ENE 3.0 mph /  4.8 km/h 6.9 mph /  11.1 km/h 89 % 0.00 in /  0 mm
11:51 42.5 °F /  5.8 °C 39.5 °F /  4.2 °C 30.33 in /  1027 hPa ENE 5.1 mph /  8.2 km/h 5.8 mph /  9.3 km/h 89 % 0.00 in /  0 mm
11:56 42.4 °F /  5.8 °C 39.1 °F /  3.9 °C 30.33 in /  1027 hPa NE 3.3 mph /  5.3 km/h 6.9 mph /  11.1 km/h 88 % 0.00 in /  0 mm
12:01 42.4 °F /  5.8 °C 38.8 °F /  3.8 °C 30.33 in /  1027 hPa ENE 2.5 mph /  4 km/h 4.6 mph /  7.4 km/h 87 % 0.00 in /  0 mm
12:07 42.4 °F /  5.8 °C 39.1 °F /  3.9 °C 30.33 in /  1027 hPa East 4.7 mph /  7.6 km/h 7.0 mph /  11.3 km/h 88 % 0.00 in /  0 mm
12:12 42.5 °F /  5.8 °C 39.2 °F /  4 °C 30.32 in /  1026.6 hPa ENE 3.7 mph /  6 km/h 4.6 mph /  7.4 km/h 88 % 0.00 in /  0 mm
12:17 42.5 °F /  5.8 °C 39.2 °F /  4 °C 30.32 in /  1026.6 hPa ENE 4.5 mph /  7.2 km/h 6.9 mph /  11.1 km/h 88 % 0.00 in /  0 mm
12:22 42.6 °F /  5.9 °C 39.3 °F /  4.1 °C 30.31 in /  1026.3 hPa East 4.6 mph /  7.4 km/h 7.0 mph /  11.3 km/h 88 % 0.00 in /  0 mm
12:27 42.6 °F /  5.9 °C 39.0 °F /  3.9 °C 30.31 in /  1026.3 hPa East 4.8 mph /  7.7 km/h 7.0 mph /  11.3 km/h 87 % 0.00 in /  0 mm
12:32 42.5 °F /  5.8 °C 38.3 °F /  3.5 °C 30.32 in /  1026.6 hPa ENE 3.6 mph /  5.8 km/h 8.1 mph /  13 km/h 85 % 0.00 in /  0 mm
12:37 42.4 °F /  5.8 °C 38.5 °F /  3.6 °C 30.32 in /  1026.6 hPa East 3.9 mph /  6.3 km/h 5.8 mph /  9.3 km/h 86 % 0.00 in /  0 mm
12:42 42.3 °F /  5.7 °C 38.4 °F /  3.6 °C 30.30 in /  1026 hPa ENE 3.8 mph /  6.1 km/h 7.0 mph /  11.3 km/h 86 % 0.00 in /  0 mm
12:47 42.3 °F /  5.7 °C 38.7 °F /  3.7 °C 30.30 in /  1026 hPa East 5.4 mph /  8.7 km/h 7.0 mph /  11.3 km/h 87 % 0.00 in /  0 mm
12:52 42.3 °F /  5.7 °C 38.7 °F /  3.7 °C 30.30 in /  1026 hPa East 6.1 mph /  9.8 km/h 9.2 mph /  14.8 km/h 87 % 0.00 in /  0 mm
12:57 42.2 °F /  5.7 °C 38.3 °F /  3.5 °C 30.29 in /  1025.6 hPa ENE 5.3 mph /  8.5 km/h 8.1 mph /  13 km/h 86 % 0.00 in /  0 mm
13:02 42.1 °F /  5.6 °C 38.2 °F /  3.4 °C 30.30 in /  1026 hPa East 4.5 mph /  7.2 km/h 6.9 mph /  11.1 km/h 86 % 0.00 in /  0 mm
13:07 42.0 °F /  5.6 °C 38.1 °F /  3.4 °C 30.29 in /  1025.6 hPa East 5.6 mph /  9 km/h 9.2 mph /  14.8 km/h 86 % 0.00 in /  0 mm
13:12 41.8 °F /  5.4 °C 38.2 °F /  3.4 °C 30.31 in /  1026.3 hPa ENE 3.4 mph /  5.5 km/h 7.0 mph /  11.3 km/h 87 % 0.00 in /  0 mm
13:17 41.6 °F /  5.3 °C 38.0 °F /  3.3 °C 30.30 in /  1026 hPa East 3.8 mph /  6.1 km/h 5.0 mph /  8 km/h 87 % 0.00 in /  0 mm
13:22 41.6 °F /  5.3 °C 38.3 °F /  3.5 °C 30.30 in /  1026 hPa ENE 4.1 mph /  6.6 km/h 4.6 mph /  7.4 km/h 88 % 0.00 in /  0 mm
13:27 41.5 °F /  5.3 °C 38.2 °F /  3.4 °C 30.30 in /  1026 hPa ENE 3.7 mph /  6 km/h 9.2 mph /  14.8 km/h 88 % 0.00 in /  0 mm
13:32 41.3 °F /  5.2 °C 38.3 °F /  3.5 °C 30.30 in /  1026 hPa NE 2.8 mph /  4.5 km/h 3.5 mph /  5.6 km/h 89 % 0.00 in /  0 mm
13:37 41.2 °F /  5.1 °C 38.2 °F /  3.4 °C 30.31 in /  1026.3 hPa NE 1.1 mph /  1.8 km/h 3.5 mph /  5.6 km/h 89 % 0.00 in /  0 mm
13:43 41.1 °F /  5.1 °C 38.1 °F /  3.4 °C 30.31 in /  1026.3 hPa NE 2.8 mph /  4.5 km/h 4.6 mph /  7.4 km/h 89 % 0.00 in /  0 mm
13:48 41.1 °F /  5.1 °C 38.4 °F /  3.6 °C 30.30 in /  1026 hPa NE 2.4 mph /  3.9 km/h 4.6 mph /  7.4 km/h 90 % 0.00 in /  0 mm
13:53 41.1 °F /  5.1 °C 38.4 °F /  3.6 °C 30.31 in /  1026.3 hPa NNE 2.4 mph /  3.9 km/h 4.6 mph /  7.4 km/h 90 % 0.00 in /  0 mm
13:58 41.1 °F /  5.1 °C 38.4 °F /  3.6 °C 30.31 in /  1026.3 hPa NNE 3.2 mph /  5.1 km/h 5.8 mph /  9.3 km/h 90 % 0.00 in /  0 mm
14:03 41.1 °F /  5.1 °C 38.4 °F /  3.6 °C 30.31 in /  1026.3 hPa NNE 1.9 mph /  3.1 km/h 3.5 mph /  5.6 km/h 90 % 0.00 in /  0 mm
14:08 41.1 °F /  5.1 °C 38.4 °F /  3.6 °C 30.31 in /  1026.3 hPa NNE 2.6 mph /  4.2 km/h 4.0 mph /  6.4 km/h 90 % 0.00 in /  0 mm
14:13 41.0 °F /  5 °C 38.3 °F /  3.5 °C 30.31 in /  1026.3 hPa NNE 2.7 mph /  4.3 km/h 4.6 mph /  7.4 km/h 90 % 0.00 in /  0 mm
14:18 41.1 °F /  5.1 °C 38.4 °F /  3.6 °C 30.31 in /  1026.3 hPa NE 2.1 mph /  3.4 km/h 4.6 mph /  7.4 km/h 90 % 0.00 in /  0 mm
14:23 41.0 °F /  5 °C 38.6 °F /  3.7 °C 30.30 in /  1026 hPa NE 3.7 mph /  6 km/h 5.8 mph /  9.3 km/h 91 % 0.00 in /  0 mm
14:28 41.0 °F /  5 °C 38.6 °F /  3.7 °C 30.31 in /  1026.3 hPa NNE 5.9 mph /  9.5 km/h 8.1 mph /  13 km/h 91 % 0.00 in /  0 mm
14:33 40.9 °F /  4.9 °C 38.2 °F /  3.4 °C 30.31 in /  1026.3 hPa NE 4.2 mph /  6.8 km/h 6.9 mph /  11.1 km/h 90 % 0.00 in /  0 mm
14:38 40.9 °F /  4.9 °C 38.2 °F /  3.4 °C 30.30 in /  1026 hPa ENE 2.9 mph /  4.7 km/h 4.6 mph /  7.4 km/h 90 % 0.00 in /  0 mm
14:43 40.7 °F /  4.8 °C 38.0 °F /  3.3 °C 30.31 in /  1026.3 hPa NNE 2.8 mph /  4.5 km/h 9.2 mph /  14.8 km/h 90 % 0.00 in /  0 mm
14:48 40.7 °F /  4.8 °C 38.0 °F /  3.3 °C 30.30 in /  1026 hPa ENE 6.0 mph /  9.7 km/h 9.2 mph /  14.8 km/h 90 % 0.00 in /  0 mm
14:53 40.6 °F /  4.8 °C 37.9 °F /  3.3 °C 30.31 in /  1026.3 hPa ENE 3.5 mph /  5.6 km/h 6.9 mph /  11.1 km/h 90 % 0.00 in /  0 mm
14:58 40.5 °F /  4.7 °C 37.8 °F /  3.2 °C 30.31 in /  1026.3 hPa ENE 4.0 mph /  6.4 km/h 9.0 mph /  14.5 km/h 90 % 0.00 in /  0 mm
15:03 40.4 °F /  4.7 °C 37.7 °F /  3.2 °C 30.32 in /  1026.6 hPa NNE 2.1 mph /  3.4 km/h 3.5 mph /  5.6 km/h 90 % 0.00 in /  0 mm
15:08 40.4 °F /  4.7 °C 37.7 °F /  3.2 °C 30.33 in /  1027 hPa NE 1.6 mph /  2.6 km/h 3.5 mph /  5.6 km/h 90 % 0.00 in /  0 mm
15:14 40.4 °F /  4.7 °C 38.0 °F /  3.3 °C 30.34 in /  1027.3 hPa North 1.5 mph /  2.4 km/h 4.0 mph /  6.4 km/h 91 % 0.00 in /  0 mm
15:19 40.4 °F /  4.7 °C 38.0 °F /  3.3 °C 30.33 in /  1027 hPa NE 1.9 mph /  3.1 km/h 3.5 mph /  5.6 km/h 91 % 0.00 in /  0 mm
15:24 40.3 °F /  4.6 °C 37.9 °F /  3.3 °C 30.33 in /  1027 hPa NE 1.6 mph /  2.6 km/h 4.6 mph /  7.4 km/h 91 % 0.00 in /  0 mm
15:29 40.1 °F /  4.5 °C 37.7 °F /  3.2 °C 30.33 in /  1027 hPa NE 2.4 mph /  3.9 km/h 5.8 mph /  9.3 km/h 91 % 0.00 in /  0 mm
15:34 40.0 °F /  4.4 °C 37.6 °F /  3.1 °C 30.33 in /  1027 hPa ENE 4.0 mph /  6.4 km/h 7.0 mph /  11.3 km/h 91 % 0.00 in /  0 mm
15:39 39.9 °F /  4.4 °C 37.2 °F /  2.9 °C 30.32 in /  1026.6 hPa NE 4.6 mph /  7.4 km/h 8.1 mph /  13 km/h 90 % 0.00 in /  0 mm
15:44 39.8 °F /  4.3 °C 37.1 °F /  2.8 °C 30.33 in /  1027 hPa NE 4.6 mph /  7.4 km/h 8.1 mph /  13 km/h 90 % 0.00 in /  0 mm
15:49 39.7 °F /  4.3 °C 37.0 °F /  2.8 °C 30.33 in /  1027 hPa NE 2.1 mph /  3.4 km/h 6.9 mph /  11.1 km/h 90 % 0.00 in /  0 mm
15:54 39.7 °F /  4.3 °C 37.0 °F /  2.8 °C 30.34 in /  1027.3 hPa NNE 3.0 mph /  4.8 km/h 4.6 mph /  7.4 km/h 90 % 0.00 in /  0 mm
15:59 39.7 °F /  4.3 °C 37.0 °F /  2.8 °C 30.36 in /  1028 hPa NNE 4.1 mph /  6.6 km/h 9.2 mph /  14.8 km/h 90 % 0.00 in /  0 mm
16:04 39.5 °F /  4.2 °C 36.8 °F /  2.7 °C 30.35 in /  1027.7 hPa NNE 5.6 mph /  9 km/h 9.2 mph /  14.8 km/h 90 % 0.00 in /  0 mm
16:09 39.3 °F /  4.1 °C 36.3 °F /  2.4 °C 30.34 in /  1027.3 hPa ENE 3.3 mph /  5.3 km/h 4.6 mph /  7.4 km/h 89 % 0.00 in /  0 mm
16:14 39.2 °F /  4 °C 35.9 °F /  2.2 °C 30.34 in /  1027.3 hPa NE 4.2 mph /  6.8 km/h 5.0 mph /  8 km/h 88 % 0.00 in /  0 mm
16:19 39.1 °F /  3.9 °C 36.1 °F /  2.3 °C 30.35 in /  1027.7 hPa NNE 6.7 mph /  10.8 km/h 10.0 mph /  16.1 km/h 89 % 0.00 in /  0 mm
16:25 38.9 °F /  3.8 °C 35.9 °F /  2.2 °C 30.35 in /  1027.7 hPa NNE 6.4 mph /  10.3 km/h 11.5 mph /  18.5 km/h 89 % 0.00 in /  0 mm
16:30 38.8 °F /  3.8 °C 36.1 °F /  2.3 °C 30.36 in /  1028 hPa NNE 7.1 mph /  11.4 km/h 10.4 mph /  16.7 km/h 90 % 0.00 in /  0 mm
16:35 38.6 °F /  3.7 °C 35.9 °F /  2.2 °C 30.36 in /  1028 hPa NNE 6.6 mph /  10.6 km/h 11.5 mph /  18.5 km/h 90 % 0.00 in /  0 mm
16:40 38.4 °F /  3.6 °C 36.0 °F /  2.2 °C 30.36 in /  1028 hPa NE 7.3 mph /  11.7 km/h 11.5 mph /  18.5 km/h 91 % 0.00 in /  0 mm
16:45 38.2 °F /  3.4 °C 35.8 °F /  2.1 °C 30.36 in /  1028 hPa NNE 5.2 mph /  8.4 km/h 8.1 mph /  13 km/h 91 % 0.00 in /  0 mm
16:50 38.1 °F /  3.4 °C 36.0 °F /  2.2 °C 30.37 in /  1028.3 hPa NNE 6.1 mph /  9.8 km/h 10.4 mph /  16.7 km/h 92 % 0.01 in /  0.25 mm
16:55 37.9 °F /  3.3 °C 35.8 °F /  2.1 °C 30.38 in /  1028.7 hPa NNE 6.9 mph /  11.1 km/h 11.5 mph /  18.5 km/h 92 % 0.01 in /  0.25 mm
17:00 37.8 °F /  3.2 °C 35.7 °F /  2.1 °C 30.38 in /  1028.7 hPa NNE 3.3 mph /  5.3 km/h 4.6 mph /  7.4 km/h 92 % 0.01 in /  0.25 mm
17:05 37.7 °F /  3.2 °C 35.6 °F /  2 °C 30.38 in /  1028.7 hPa NNE 4.0 mph /  6.4 km/h 6.0 mph /  9.7 km/h 92 % 0.01 in /  0.25 mm
17:10 37.7 °F /  3.2 °C 35.9 °F /  2.2 °C 30.38 in /  1028.7 hPa NE 3.7 mph /  6 km/h 6.9 mph /  11.1 km/h 93 % 0.01 in /  0.25 mm
17:15 37.7 °F /  3.2 °C 35.9 °F /  2.2 °C 30.39 in /  1029 hPa NNE 3.4 mph /  5.5 km/h 6.9 mph /  11.1 km/h 93 % 0.01 in /  0.25 mm
17:20 37.6 °F /  3.1 °C 35.8 °F /  2.1 °C 30.39 in /  1029 hPa NE 2.9 mph /  4.7 km/h 6.9 mph /  11.1 km/h 93 % 0.01 in /  0.25 mm
17:25 37.6 °F /  3.1 °C 35.8 °F /  2.1 °C 30.39 in /  1029 hPa ENE 3.6 mph /  5.8 km/h 8.1 mph /  13 km/h 93 % 0.01 in /  0.25 mm
17:30 37.5 °F /  3.1 °C 35.7 °F /  2.1 °C 30.39 in /  1029 hPa NE 2.5 mph /  4 km/h 4.6 mph /  7.4 km/h 93 % 0.01 in /  0.25 mm
17:35 37.5 °F /  3.1 °C 35.9 °F /  2.2 °C 30.40 in /  1029.3 hPa ENE 1.3 mph /  2.1 km/h 3.5 mph /  5.6 km/h 94 % 0.02 in /  0.51 mm
17:40 37.5 °F /  3.1 °C 35.9 °F /  2.2 °C 30.40 in /  1029.3 hPa NNE 2.1 mph /  3.4 km/h 3.5 mph /  5.6 km/h 94 % 0.02 in /  0.51 mm
17:45 37.5 °F /  3.1 °C 35.9 °F /  2.2 °C 30.41 in /  1029.7 hPa NNE 6.5 mph /  10.5 km/h 8.0 mph /  12.9 km/h 94 % 0.02 in /  0.51 mm
17:50 37.4 °F /  3 °C 35.8 °F /  2.1 °C 30.41 in /  1029.7 hPa NNE 6.5 mph /  10.5 km/h 8.1 mph /  13 km/h 94 % 0.01 in /  0.25 mm
17:56 37.4 °F /  3 °C 35.8 °F /  2.1 °C 30.41 in /  1029.7 hPa NNE 6.0 mph /  9.7 km/h 9.0 mph /  14.5 km/h 94 % 0.00 in /  0 mm
18:01 37.3 °F /  2.9 °C 35.7 °F /  2.1 °C 30.41 in /  1029.7 hPa NNE 7.4 mph /  11.9 km/h 10.4 mph /  16.7 km/h 94 % 0.01 in /  0.25 mm
18:06 37.3 °F /  2.9 °C 35.7 °F /  2.1 °C 30.41 in /  1029.7 hPa NNE 6.0 mph /  9.7 km/h 12.0 mph /  19.3 km/h 94 % 0.00 in /  0 mm
18:11 37.2 °F /  2.9 °C 35.6 °F /  2 °C 30.40 in /  1029.3 hPa NNE 7.0 mph /  11.3 km/h 10.0 mph /  16.1 km/h 94 % 0.00 in /  0 mm
18:16 37.1 °F /  2.8 °C 35.8 °F /  2.1 °C 30.40 in /  1029.3 hPa NNE 3.0 mph /  4.8 km/h 12.0 mph /  19.3 km/h 95 % 0.00 in /  0 mm
18:21 37.1 °F /  2.8 °C 35.5 °F /  1.9 °C 30.40 in /  1029.3 hPa NE 2.7 mph /  4.3 km/h 8.1 mph /  13 km/h 94 % 0.01 in /  0.25 mm
18:26 37.1 °F /  2.8 °C 35.5 °F /  1.9 °C 30.40 in /  1029.3 hPa NE 6.0 mph /  9.7 km/h 10.0 mph /  16.1 km/h 94 % 0.00 in /  0 mm
18:31 37.0 °F /  2.8 °C 35.4 °F /  1.9 °C 30.39 in /  1029 hPa NE 5.0 mph /  8 km/h 10.0 mph /  16.1 km/h 94 % 0.00 in /  0 mm
18:36 36.8 °F /  2.7 °C 35.2 °F /  1.8 °C 30.39 in /  1029 hPa NNE 4.3 mph /  6.9 km/h 8.1 mph /  13 km/h 94 % 0.00 in /  0 mm
18:41 36.7 °F /  2.6 °C 35.4 °F /  1.9 °C 30.39 in /  1029 hPa NE 3.7 mph /  6 km/h 6.9 mph /  11.1 km/h 95 % 0.00 in /  0 mm
18:46 36.5 °F /  2.5 °C 35.2 °F /  1.8 °C 30.39 in /  1029 hPa NE 5.0 mph /  8 km/h 9.0 mph /  14.5 km/h 95 % 0.00 in /  0 mm
18:51 36.4 °F /  2.4 °C 34.8 °F /  1.6 °C 30.39 in /  1029 hPa NE 5.0 mph /  8 km/h 7.0 mph /  11.3 km/h 94 % 0.00 in /  0 mm
18:56 36.3 °F /  2.4 °C 34.7 °F /  1.5 °C 30.39 in /  1029 hPa NE 3.0 mph /  4.8 km/h 12.0 mph /  19.3 km/h 94 % 0.00 in /  0 mm
19:01 36.3 °F /  2.4 °C 34.7 °F /  1.5 °C 30.39 in /  1029 hPa ENE 4.4 mph /  7.1 km/h 5.0 mph /  8 km/h 94 % 0.00 in /  0 mm
19:06 36.2 °F /  2.3 °C 34.6 °F /  1.4 °C 30.39 in /  1029 hPa NE 5.0 mph /  8 km/h 10.0 mph /  16.1 km/h 94 % 0.00 in /  0 mm
19:11 36.1 °F /  2.3 °C 34.5 °F /  1.4 °C 30.38 in /  1028.7 hPa NE 7.0 mph /  11.3 km/h 10.0 mph /  16.1 km/h 94 % 0.00 in /  0 mm
19:16 36.0 °F /  2.2 °C 34.4 °F /  1.3 °C 30.38 in /  1028.7 hPa ENE 7.0 mph /  11.3 km/h 12.0 mph /  19.3 km/h 94 % 0.00 in /  0 mm
19:21 35.9 °F /  2.2 °C 34.4 °F /  1.3 °C 30.38 in /  1028.7 hPa ENE 7.0 mph /  11.3 km/h 9.0 mph /  14.5 km/h 94 % 0.00 in /  0 mm
19:26 35.9 °F /  2.2 °C 34.3 °F /  1.3 °C 30.37 in /  1028.3 hPa ENE 5.0 mph /  8 km/h 10.0 mph /  16.1 km/h 94 % 0.00 in /  0 mm
19:31 35.9 °F /  2.2 °C 34.4 °F /  1.3 °C 30.37 in /  1028.3 hPa ENE 6.0 mph /  9.7 km/h 10.0 mph /  16.1 km/h 94 % 0.00 in /  0 mm
19:36 35.9 °F /  2.2 °C 34.3 °F /  1.3 °C 30.37 in /  1028.3 hPa ENE 7.0 mph /  11.3 km/h 12.0 mph /  19.3 km/h 94 % 0.00 in /  0 mm
19:41 35.8 °F /  2.1 °C 34.3 °F /  1.3 °C 30.38 in /  1028.7 hPa ENE 8.0 mph /  12.9 km/h 12.0 mph /  19.3 km/h 94 % 0.00 in /  0 mm
19:46 35.8 °F /  2.1 °C 34.2 °F /  1.2 °C 30.38 in /  1028.7 hPa ENE 5.0 mph /  8 km/h 12.0 mph /  19.3 km/h 94 % 0.00 in /  0 mm
19:51 35.8 °F /  2.1 °C 34.2 °F /  1.2 °C 30.38 in /  1028.7 hPa ENE 7.0 mph /  11.3 km/h 10.0 mph /  16.1 km/h 94 % 0.00 in /  0 mm
19:56 35.9 °F /  2.2 °C 34.3 °F /  1.3 °C 30.38 in /  1028.7 hPa East 4.7 mph /  7.6 km/h 8.1 mph /  13 km/h 94 % 0.00 in /  0 mm
20:01 35.9 °F /  2.2 °C 34.3 °F /  1.3 °C 30.38 in /  1028.7 hPa ENE 7.2 mph /  11.6 km/h 9.2 mph /  14.8 km/h 94 % 0.00 in /  0 mm
20:06 35.9 °F /  2.2 °C 34.3 °F /  1.3 °C 30.38 in /  1028.7 hPa ENE 6.5 mph /  10.5 km/h 8.1 mph /  13 km/h 94 % 0.00 in /  0 mm
20:11 35.9 °F /  2.2 °C 34.3 °F /  1.3 °C 30.38 in /  1028.7 hPa ENE 5.9 mph /  9.5 km/h 9.2 mph /  14.8 km/h 94 % 0.00 in /  0 mm
20:16 35.9 °F /  2.2 °C 34.3 °F /  1.3 °C 30.38 in /  1028.7 hPa East 7.8 mph /  12.6 km/h 11.5 mph /  18.5 km/h 94 % 0.00 in /  0 mm
20:21 35.9 °F /  2.2 °C 34.3 °F /  1.3 °C 30.38 in /  1028.7 hPa ENE 7.4 mph /  11.9 km/h 10.4 mph /  16.7 km/h 94 % 0.00 in /  0 mm
20:26 35.8 °F /  2.1 °C 34.2 °F /  1.2 °C 30.38 in /  1028.7 hPa ENE 5.3 mph /  8.5 km/h 10.0 mph /  16.1 km/h 94 % 0.00 in /  0 mm
20:31 35.8 °F /  2.1 °C 34.0 °F /  1.1 °C 30.38 in /  1028.7 hPa ENE 7.1 mph /  11.4 km/h 8.1 mph /  13 km/h 93 % 0.00 in /  0 mm
20:36 35.9 °F /  2.2 °C 34.1 °F /  1.2 °C 30.39 in /  1029 hPa ENE 6.4 mph /  10.3 km/h 11.5 mph /  18.5 km/h 93 % 0.00 in /  0 mm
20:41 35.9 °F /  2.2 °C 34.1 °F /  1.2 °C 30.39 in /  1029 hPa ENE 6.6 mph /  10.6 km/h 9.0 mph /  14.5 km/h 93 % 0.00 in /  0 mm
20:46 35.9 °F /  2.2 °C 34.1 °F /  1.2 °C 30.38 in /  1028.7 hPa NE 6.3 mph /  10.1 km/h 11.5 mph /  18.5 km/h 93 % 0.00 in /  0 mm
20:51 35.9 °F /  2.2 °C 34.1 °F /  1.2 °C 30.39 in /  1029 hPa NE 5.1 mph /  8.2 km/h 8.1 mph /  13 km/h 93 % 0.00 in /  0 mm
20:56 35.9 °F /  2.2 °C 34.1 °F /  1.2 °C 30.39 in /  1029 hPa ENE 7.2 mph /  11.6 km/h 11.5 mph /  18.5 km/h 93 % 0.00 in /  0 mm
21:01 35.9 °F /  2.2 °C 34.1 °F /  1.2 °C 30.39 in /  1029 hPa NNE 5.8 mph /  9.3 km/h 9.2 mph /  14.8 km/h 93 % 0.00 in /  0 mm
21:06 35.9 °F /  2.2 °C 34.1 °F /  1.2 °C 30.40 in /  1029.3 hPa ENE 2.5 mph /  4 km/h 5.8 mph /  9.3 km/h 93 % 0.00 in /  0 mm
21:11 36.0 °F /  2.2 °C 34.2 °F /  1.2 °C 30.40 in /  1029.3 hPa ENE 4.9 mph /  7.9 km/h 8.1 mph /  13 km/h 93 % 0.00 in /  0 mm
21:16 36.0 °F /  2.2 °C 34.2 °F /  1.2 °C 30.40 in /  1029.3 hPa ENE 5.7 mph /  9.2 km/h 10.4 mph /  16.7 km/h 93 % 0.00 in /  0 mm
21:21 36.0 °F /  2.2 °C 34.2 °F /  1.2 °C 30.40 in /  1029.3 hPa NE 3.7 mph /  6 km/h 6.9 mph /  11.1 km/h 93 % 0.00 in /  0 mm
21:26 36.0 °F /  2.2 °C 34.2 °F /  1.2 °C 30.40 in /  1029.3 hPa ENE 5.7 mph /  9.2 km/h 7.0 mph /  11.3 km/h 93 % 0.00 in /  0 mm
21:32 36.0 °F /  2.2 °C 34.2 °F /  1.2 °C 30.40 in /  1029.3 hPa ENE 4.9 mph /  7.9 km/h 8.0 mph /  12.9 km/h 93 % 0.00 in /  0 mm
21:37 36.0 °F /  2.2 °C 34.2 °F /  1.2 °C 30.39 in /  1029 hPa ENE 3.5 mph /  5.6 km/h 8.1 mph /  13 km/h 93 % 0.00 in /  0 mm
21:42 36.1 °F /  2.3 °C 34.3 °F /  1.3 °C 30.39 in /  1029 hPa ENE 4.4 mph /  7.1 km/h 8.1 mph /  13 km/h 93 % 0.00 in /  0 mm
21:47 36.2 °F /  2.3 °C 34.4 °F /  1.3 °C 30.39 in /  1029 hPa ENE 5.1 mph /  8.2 km/h 9.2 mph /  14.8 km/h 93 % 0.00 in /  0 mm
21:52 36.2 °F /  2.3 °C 34.4 °F /  1.3 °C 30.39 in /  1029 hPa ENE 5.7 mph /  9.2 km/h 8.1 mph /  13 km/h 93 % 0.00 in /  0 mm
21:57 36.2 °F /  2.3 °C 34.4 °F /  1.3 °C 30.40 in /  1029.3 hPa ENE 5.5 mph /  8.9 km/h 10.4 mph /  16.7 km/h 93 % 0.00 in /  0 mm
22:02 36.2 °F /  2.3 °C 34.4 °F /  1.3 °C 30.39 in /  1029 hPa ENE 4.6 mph /  7.4 km/h 7.0 mph /  11.3 km/h 93 % 0.00 in /  0 mm
22:07 36.2 °F /  2.3 °C 34.6 °F /  1.4 °C 30.40 in /  1029.3 hPa ENE 4.3 mph /  6.9 km/h 8.1 mph /  13 km/h 94 % 0.00 in /  0 mm
22:12 36.3 °F /  2.4 °C 34.5 °F /  1.4 °C 30.40 in /  1029.3 hPa East 5.2 mph /  8.4 km/h 8.1 mph /  13 km/h 93 % 0.00 in /  0 mm
22:17 36.3 °F /  2.4 °C 34.5 °F /  1.4 °C 30.39 in /  1029 hPa East 5.4 mph /  8.7 km/h 10.4 mph /  16.7 km/h 93 % 0.00 in /  0 mm
22:22 36.3 °F /  2.4 °C 34.5 °F /  1.4 °C 30.39 in /  1029 hPa ENE 5.0 mph /  8 km/h 10.4 mph /  16.7 km/h 93 % 0.00 in /  0 mm
22:27 36.3 °F /  2.4 °C 34.5 °F /  1.4 °C 30.40 in /  1029.3 hPa ENE 8.0 mph /  12.9 km/h 10.4 mph /  16.7 km/h 93 % 0.00 in /  0 mm
22:32 36.3 °F /  2.4 °C 34.5 °F /  1.4 °C 30.41 in /  1029.7 hPa NE 4.4 mph /  7.1 km/h 8.1 mph /  13 km/h 93 % 0.00 in /  0 mm
22:37 36.3 °F /  2.4 °C 34.5 °F /  1.4 °C 30.42 in /  1030 hPa ENE 5.1 mph /  8.2 km/h 7.0 mph /  11.3 km/h 93 % 0.00 in /  0 mm
22:42 36.3 °F /  2.4 °C 34.5 °F /  1.4 °C 30.42 in /  1030 hPa NE 3.7 mph /  6 km/h 5.0 mph /  8 km/h 93 % 0.00 in /  0 mm
22:47 36.4 °F /  2.4 °C 34.6 °F /  1.4 °C 30.43 in /  1030.4 hPa ENE 4.5 mph /  7.2 km/h 10.4 mph /  16.7 km/h 93 % 0.00 in /  0 mm
22:52 36.4 °F /  2.4 °C 34.6 °F /  1.4 °C 30.43 in /  1030.4 hPa NE 4.6 mph /  7.4 km/h 9.0 mph /  14.5 km/h 93 % 0.00 in /  0 mm
22:57 36.4 °F /  2.4 °C 34.6 °F /  1.4 °C 30.42 in /  1030 hPa ENE 4.4 mph /  7.1 km/h 8.1 mph /  13 km/h 93 % 0.00 in /  0 mm
23:03 36.4 °F /  2.4 °C 34.6 °F /  1.4 °C 30.42 in /  1030 hPa NE 4.8 mph /  7.7 km/h 9.2 mph /  14.8 km/h 93 % 0.00 in /  0 mm
23:08 36.4 °F /  2.4 °C 34.6 °F /  1.4 °C 30.41 in /  1029.7 hPa NE 4.2 mph /  6.8 km/h 5.0 mph /  8 km/h 93 % 0.00 in /  0 mm
23:13 36.4 °F /  2.4 °C 34.6 °F /  1.4 °C 30.42 in /  1030 hPa ENE 4.2 mph /  6.8 km/h 10.4 mph /  16.7 km/h 93 % 0.00 in /  0 mm
23:18 36.4 °F /  2.4 °C 34.6 °F /  1.4 °C 30.41 in /  1029.7 hPa NE 5.4 mph /  8.7 km/h 11.5 mph /  18.5 km/h 93 % 0.00 in /  0 mm
23:23 36.4 °F /  2.4 °C 34.6 °F /  1.4 °C 30.40 in /  1029.3 hPa ENE 6.8 mph /  10.9 km/h 11.5 mph /  18.5 km/h 93 % 0.00 in /  0 mm
23:28 36.3 °F /  2.4 °C 34.5 °F /  1.4 °C 30.40 in /  1029.3 hPa NE 6.5 mph /  10.5 km/h 10.4 mph /  16.7 km/h 93 % 0.00 in /  0 mm
23:33 36.3 °F /  2.4 °C 34.5 °F /  1.4 °C 30.41 in /  1029.7 hPa ENE 7.0 mph /  11.3 km/h 10.4 mph /  16.7 km/h 93 % 0.00 in /  0 mm
23:38 36.3 °F /  2.4 °C 34.5 °F /  1.4 °C 30.42 in /  1030 hPa ENE 4.4 mph /  7.1 km/h 8.1 mph /  13 km/h 93 % 0.00 in /  0 mm
23:43 36.3 °F /  2.4 °C 34.5 °F /  1.4 °C 30.41 in /  1029.7 hPa NE 4.9 mph /  7.9 km/h 8.1 mph /  13 km/h 93 % 0.00 in /  0 mm
23:48 36.2 °F /  2.3 °C 34.4 °F /  1.3 °C 30.41 in /  1029.7 hPa ENE 4.6 mph /  7.4 km/h 8.1 mph /  13 km/h 93 % 0.00 in /  0 mm
23:53 36.2 °F /  2.3 °C 34.4 °F /  1.3 °C 30.42 in /  1030 hPa ENE 5.5 mph /  8.9 km/h 11.5 mph /  18.5 km/h 93 % 0.00 in /  0 mm
23:58 36.2 °F /  2.3 °C 34.4 °F /  1.3 °C 30.41 in /  1029.7 hPa NE 3.2 mph /  5.1 km/h 8.0 mph /  12.9 km/h 93 % 0.00 in /  0 mm
Crab Meadow Weather
Compliments of Weather Underground - 3 mb

Script developed by  Jim McMurry - jmcmurry@mwt.net Adapted for the template by  Wim van der Kuil - Leuven-Template.eu

Weather Terms: Flood Warning - General or areal flooding of streets, low-lying areas, urban storm drains, creeks and small streams is occurring, imminent, or highly likely. Flood warnings are issued for flooding that occurs more than 6 hours after the excessive rainfall. These warnings are issued on a county by county basis by the local Weather Forecast Office in Upton and are generally in effect for 6 to 12 hours.